| time (UTC) | temp C | wind direction | speed KPH | gust KPH | rain 1hr cm | rain 24hr cm | rain mn cm | humidity % | barometer mb |
| 20260906012115 | 17 | 334 | 8.0 | 20.9 | 0.00 | 0.10 | 0.03 | 48 | 1012.3 |
| 20260906011616 | 17 | 338 | 8.0 | 17.7 | 0.00 | 0.10 | 0.03 | 48 | 1012.2 |
| 20260906011355 | 17 | 330 | 8.0 | 17.7 | 0.00 | 0.10 | 0.03 | 49 | 1012.3 |
| 20260906010848 | 17 | 321 | 8.0 | 19.3 | 0.00 | 0.10 | 0.03 | 48 | 1012.2 |
| 20260906010115 | 17 | 330 | 8.0 | 20.9 | 0.00 | 0.10 | 0.03 | 48 | 1012.2 |
| 20260906005615 | 17 | 325 | 9.7 | 20.9 | 0.00 | 0.10 | 0.03 | 48 | 1012.2 |
| 20260906005116 | 17 | 355 | 9.7 | 20.9 | 0.00 | 0.10 | 0.03 | 48 | 1012.2 |
| 20260906004615 | 17 | 350 | 11.3 | 20.9 | 0.00 | 0.10 | 0.03 | 47 | 1012.1 |
| 20260906004358 | 17 | 333 | 9.7 | 19.3 | 0.00 | 0.10 | 0.03 | 48 | 1012.2 |
| 20260906003616 | 17 | 330 | 9.7 | 19.3 | 0.00 | 0.10 | 0.03 | 47 | 1012.1 |
| 20260906003116 | 17 | 344 | 9.7 | 19.3 | 0.00 | 0.10 | 0.03 | 48 | 1012.2 |
| 20260906002623 | 17 | 338 | 9.7 | 19.3 | 0.00 | 0.10 | 0.03 | 47 | 1012.2 |
| 20260906002123 | 18 | 331 | 9.7 | 22.5 | 0.00 | 0.10 | 0.03 | 47 | 1012.2 |
| 20260906001617 | 18 | 348 | 8.0 | 22.5 | 0.00 | 0.10 | 0.03 | 46 | 1012.1 |
| 20260906001110 | 18 | 322 | 8.0 | 16.1 | 0.00 | 0.10 | 0.03 | 47 | 1012.1 |
| 20260906000607 | 18 | 345 | 9.7 | 19.3 | 0.00 | 0.10 | 0.03 | 47 | 1012.2 |
| 20260906000100 | 18 | 283 | 11.3 | 22.5 | 0.00 | 0.10 | 0.03 | 47 | 1012.0 |
| 20260905235553 | 18 | 355 | 11.3 | 22.5 | 0.00 | 0.10 | 0.03 | 47 | 1012.1 |
| 20260905235046 | 18 | 301 | 9.7 | 20.9 | 0.00 | 0.10 | 0.03 | 47 | 1012.0 |
| 20260905234541 | 19 | 294 | 9.7 | 20.9 | 0.00 | 0.10 | 0.03 | 46 | 1012.0 |
| 20260905234036 | 19 | 342 | 9.7 | 19.3 | 0.00 | 0.10 | 0.03 | 44 | 1012.0 |
| 20260905233526 | 20 | 321 | 11.3 | 22.5 | 0.00 | 0.10 | 0.03 | 43 | 1012.0 |
| 20260905233022 | 20 | 296 | 11.3 | 27.4 | 0.00 | 0.10 | 0.03 | 42 | 1012.0 |
| 20260905232516 | 20 | 17 | 9.7 | 27.4 | 0.00 | 0.10 | 0.03 | 43 | 1012.0 |
| 20260905232011 | 20 | 298 | 6.4 | 17.7 | 0.00 | 0.10 | 0.03 | 42 | 1012.1 |
| 20260905231734 | 20 | 326 | 4.8 | 16.1 | 0.00 | 0.10 | 0.03 | 42 | 1012.1 |
| 20260905230953 | 20 | 5 | 3.2 | 8.0 | 0.00 | 0.10 | 0.03 | 42 | 1012.1 |
| 20260905230723 | 20 | 323 | 4.8 | 11.3 | 0.00 | 0.10 | 0.03 | 41 | 1012.1 |
| 20260905225947 | 20 | 336 | 3.2 | 14.5 | 0.00 | 0.10 | 0.03 | 41 | 1012.1 |
| 20260905225441 | 20 | 44 | 4.8 | 14.5 | 0.00 | 0.13 | 0.03 | 41 | 1012.2 |
| 20260905225203 | 20 | 5 | 4.8 | 14.5 | 0.00 | 0.13 | 0.03 | 41 | 1012.2 |
| 20260905224430 | 20 | 338 | 3.2 | 11.3 | 0.00 | 0.15 | 0.03 | 41 | 1012.1 |
| 20260905223923 | 20 | 321 | 3.2 | 11.3 | 0.00 | 0.15 | 0.03 | 41 | 1012.1 |
| 20260905223417 | 20 | 322 | 3.2 | 9.7 | 0.00 | 0.15 | 0.03 | 40 | 1012.2 |
| 20260905222911 | 20 | 84 | 1.6 | 9.7 | 0.00 | 0.15 | 0.03 | 42 | 1012.2 |
| 20260905222405 | 20 | 12 | 3.2 | 9.7 | 0.00 | 0.15 | 0.03 | 43 | 1012.3 |
| 20260905221859 | 19 | 76 | 3.2 | 12.9 | 0.00 | 0.15 | 0.03 | 44 | 1012.3 |
| 20260905221353 | 19 | 81 | 3.2 | 12.9 | 0.00 | 0.15 | 0.03 | 43 | 1012.3 |
| 20260905221112 | 19 | 69 | 1.6 | 8.0 | 0.00 | 0.15 | 0.03 | 43 | 1012.4 |
| 20260905220610 | 20 | 57 | 3.2 | 12.9 | 0.00 | 0.15 | 0.03 | 44 | 1012.2 |
| 20260905220107 | 20 | 346 | 4.8 | 12.9 | 0.00 | 0.15 | 0.03 | 43 | 1012.3 |
| 20260905215331 | 20 | 355 | 3.2 | 8.0 | 0.00 | 0.15 | 0.03 | 44 | 1012.4 |
| 20260905214821 | 19 | 346 | 1.6 | 6.4 | 0.00 | 0.15 | 0.03 | 44 | 1012.6 |
| 20260905214319 | 20 | 335 | 4.8 | 14.5 | 0.00 | 0.15 | 0.03 | 44 | 1012.6 |
| 20260905213811 | 20 | 355 | 4.8 | 14.5 | 0.00 | 0.15 | 0.03 | 42 | 1012.6 |
| 20260905213530 | 20 | 16 | 3.2 | 11.3 | 0.00 | 0.15 | 0.03 | 43 | 1012.7 |
| 20260905212803 | 20 | 34 | 3.2 | 9.7 | 0.00 | 0.15 | 0.03 | 45 | 1012.8 |
| 20260905212253 | 20 | 11 | 3.2 | 8.0 | 0.00 | 0.15 | 0.03 | 45 | 1012.7 |
| 20260905211747 | 20 | 11 | 3.2 | 8.0 | 0.00 | 0.15 | 0.03 | 44 | 1012.8 |
| 20260905211241 | 20 | 57 | 3.2 | 8.0 | 0.00 | 0.15 | 0.03 | 45 | 1012.9 |
| 20260905210735 | 20 | 63 | 1.6 | 6.4 | 0.00 | 0.15 | 0.03 | 46 | 1012.9 |
| 20260905210229 | 19 | 118 | 1.6 | 6.4 | 0.00 | 0.15 | 0.03 | 45 | 1013.0 |
| 20260905205723 | 19 | 90 | 1.6 | 11.3 | 0.00 | 0.15 | 0.03 | 46 | 1013.0 |
| 20260905205217 | 19 | 72 | 3.2 | 12.9 | 0.00 | 0.15 | 0.03 | 45 | 1013.0 |
| 20260905204711 | 19 | 17 | 4.8 | 12.9 | 0.00 | 0.15 | 0.03 | 47 | 1013.0 |
| 20260905204433 | 19 | 60 | 3.2 | 9.7 | 0.00 | 0.15 | 0.03 | 47 | 1013.0 |
| 20260905203700 | 19 | 348 | 1.6 | 8.0 | 0.00 | 0.15 | 0.03 | 46 | 1013.2 |
| 20260905203153 | 19 | 80 | 3.2 | 12.9 | 0.00 | 0.15 | 0.03 | 49 | 1013.1 |
| 20260905202646 | 18 | 96 | 1.6 | 12.9 | 0.00 | 0.15 | 0.03 | 49 | 1013.2 |
| 20260905202143 | 18 | 44 | 0.0 | 6.4 | 0.00 | 0.15 | 0.03 | 48 | 1013.2 |
| 20260905201642 | 18 | 0 | 1.6 | 9.7 | 0.00 | 0.15 | 0.03 | 50 | 1013.3 |
| 20260905201149 | 18 | 201 | 1.6 | 9.7 | 0.00 | 0.15 | 0.03 | 50 | 1013.3 |
| 20260905201143 | 18 | 199 | 1.6 | 9.7 | 0.00 | 0.15 | 0.03 | 49 | 1013.3 |
| 20260905200139 | 17 | 104 | 3.2 | 11.3 | 0.00 | 0.15 | 0.03 | 49 | 1013.4 |
| 20260905195651 | 17 | 171 | 3.2 | 12.9 | 0.00 | 0.15 | 0.03 | 50 | 1013.4 |
| 20260905195139 | 17 | 138 | 1.6 | 12.9 | 0.00 | 0.15 | 0.03 | 51 | 1013.5 |
| 20260905194639 | 17 | 131 | 1.6 | 8.0 | 0.00 | 0.15 | 0.03 | 52 | 1013.5 |
| 20260905194135 | 17 | 119 | 3.2 | 8.0 | 0.00 | 0.15 | 0.03 | 53 | 1013.6 |
| 20260905193635 | 17 | 172 | 1.6 | 8.0 | 0.00 | 0.15 | 0.03 | 54 | 1013.8 |
| 20260905193402 | 16 | 105 | 1.6 | 6.4 | 0.00 | 0.15 | 0.03 | 56 | 1013.6 |
| 20260905192636 | 16 | 99 | 1.6 | 9.7 | 0.00 | 0.15 | 0.03 | 56 | 1013.8 |
| 20260905192405 | 16 | 91 | 3.2 | 9.7 | 0.00 | 0.15 | 0.03 | 57 | 1013.9 |
| 20260905191635 | 16 | 80 | 3.2 | 9.7 | 0.00 | 0.15 | 0.03 | 55 | 1014.0 |
| 20260905191408 | 16 | 89 | 3.2 | 9.7 | 0.00 | 0.15 | 0.03 | 54 | 1014.0 |
| 20260905190635 | 16 | 96 | 1.6 | 4.8 | 0.00 | 0.15 | 0.03 | 59 | 1014.0 |
| 20260905190135 | 16 | 47 | 3.2 | 8.0 | 0.00 | 0.15 | 0.03 | 59 | 1013.9 |
| 20260905185907 | 16 | 51 | 3.2 | 11.3 | 0.00 | 0.15 | 0.03 | 59 | 1014.0 |
| 20260905185134 | 16 | 55 | 3.2 | 11.3 | 0.00 | 0.15 | 0.03 | 60 | 1014.1 |
| 20260905184628 | 16 | 114 | 3.2 | 9.7 | 0.00 | 0.15 | 0.03 | 63 | 1014.0 |
| 20260905184122 | 15 | 63 | 3.2 | 9.7 | 0.00 | 0.15 | 0.03 | 66 | 1014.0 |
| 20260905183616 | 15 | 89 | 3.2 | 11.3 | 0.00 | 0.15 | 0.03 | 65 | 1014.1 |
| 20260905183110 | 15 | 100 | 3.2 | 11.3 | 0.00 | 0.15 | 0.03 | 66 | 1014.2 |
| 20260905182604 | 15 | 78 | 1.6 | 11.3 | 0.00 | 0.15 | 0.03 | 69 | 1014.3 |
| 20260905182059 | 15 | 114 | 1.6 | 6.4 | 0.00 | 0.15 | 0.03 | 71 | 1014.4 |
| 20260905181552 | 14 | 127 | 3.2 | 9.7 | 0.00 | 0.15 | 0.03 | 71 | 1014.5 |
| 20260905181044 | 13 | 121 | 1.6 | 9.7 | 0.00 | 0.15 | 0.03 | 74 | 1014.6 |
| 20260905180819 | 12 | 96 | 1.6 | 6.4 | 0.00 | 0.15 | 0.03 | 78 | 1014.6 |
| 20260905180543 | 13 | 139 | 1.6 | 8.0 | 0.00 | 0.15 | 0.03 | 75 | 1014.7 |
| 20260905175020 | 12 | 90 | 1.6 | 6.4 | 0.00 | 0.15 | 0.03 | 81 | 1014.8 |
| 20260905174514 | 11 | 147 | 1.6 | 9.7 | 0.00 | 0.15 | 0.03 | 82 | 1014.8 |
| 20260905174009 | 11 | 148 | 1.6 | 9.7 | 0.00 | 0.15 | 0.03 | 82 | 1015.0 |
| 20260905173502 | 11 | 166 | 1.6 | 9.7 | 0.00 | 0.15 | 0.03 | 86 | 1015.0 |
| 20260905173006 | 10 | 123 | 0.0 | 4.8 | 0.00 | 0.15 | 0.03 | 88 | 1015.0 |
| 20260905173000 | 10 | 171 | 1.6 | 9.7 | 0.00 | 0.15 | 0.03 | 85 | 1015.1 |
| 20260905171944 | 10 | 116 | 1.6 | 6.4 | 0.00 | 0.15 | 0.03 | 90 | 1015.0 |
| 20260905171438 | 9 | 105 | 1.6 | 6.4 | 0.00 | 0.15 | 0.03 | 91 | 1015.0 |
| 20260905170932 | 8 | 135 | 1.6 | 6.4 | 0.00 | 0.15 | 0.03 | 91 | 1015.0 |
| 20260905170427 | 8 | 134 | 1.6 | 6.4 | 0.00 | 0.15 | 0.03 | 91 | 1015.0 |
| 20260905165920 | 8 | 136 | 0.0 | 6.4 | 0.00 | 0.15 | 0.03 | 91 | 1014.8 |
| 20260905165417 | 8 | 136 | 1.6 | 6.4 | 0.00 | 0.15 | 0.03 | 93 | 1015.0 |
| 20260905165142 | 8 | 134 | 3.2 | 9.7 | 0.00 | 0.15 | 0.03 | 93 | 1015.0 |
| 20260905164930 | 7 | 142 | 3.2 | 9.7 | 0.00 | 0.15 | 0.03 | 93 | 1014.8 |
| 20260905164920 | 8 | 134 | 3.2 | 9.7 | 0.00 | 0.15 | 0.03 | 93 | 1015.0 |
| 20260905163856 | 7 | 138 | 3.2 | 8.0 | 0.00 | 0.15 | 0.03 | 93 | 1014.8 |
| 20260905163350 | 7 | 149 | 3.2 | 9.7 | 0.00 | 0.15 | 0.03 | 93 | 1014.8 |
| 20260905162844 | 7 | 133 | 1.6 | 9.7 | 0.00 | 0.15 | 0.03 | 93 | 1015.0 |
| 20260905162837 | 7 | 148 | 1.6 | 11.3 | 0.00 | 0.15 | 0.03 | 93 | 1015.1 |
| 20260905161815 | 7 | 139 | 1.6 | 8.0 | 0.00 | 0.15 | 0.03 | 95 | 1015.0 |
| 20260905160541 | 6 | 148 | 0.0 | 4.8 | 0.00 | 0.15 | 0.03 | 95 | 1015.1 |
| 20260905155808 | 6 | 150 | 0.0 | 4.8 | 0.00 | 0.15 | 0.03 | 94 | 1015.2 |
| 20260905155305 | 6 | 153 | 0.0 | 3.2 | 0.00 | 0.15 | 0.03 | 95 | 1015.2 |
| 20260905154756 | 6 | 153 | 0.0 | 4.8 | 0.00 | 0.15 | 0.03 | 95 | 1015.2 |
| 20260905154250 | 6 | 153 | 1.6 | 4.8 | 0.00 | 0.15 | 0.03 | 95 | 1015.1 |
| 20260905153744 | 6 | 153 | 1.6 | 9.7 | 0.00 | 0.15 | 0.03 | 94 | 1015.0 |
| 20260905153244 | 6 | 157 | 1.6 | 9.7 | 0.00 | 0.15 | 0.03 | 95 | 1015.0 |
| 20260905152742 | 6 | 140 | 3.2 | 14.5 | 0.00 | 0.15 | 0.03 | 95 | 1014.8 |
| 20260905152242 | 6 | 148 | 3.2 | 14.5 | 0.00 | 0.15 | 0.03 | 95 | 1015.0 |
| 20260905152009 | 7 | 143 | 3.2 | 11.3 | 0.00 | 0.15 | 0.03 | 95 | 1015.1 |
| 20260905151512 | 7 | 142 | 3.2 | 11.3 | 0.00 | 0.15 | 0.03 | 96 | 1015.1 |
| 20260905151006 | 7 | 157 | 3.2 | 9.7 | 0.00 | 0.15 | 0.03 | 96 | 1015.1 |
| 20260905150241 | 6 | 149 | 3.2 | 8.0 | 0.00 | 0.15 | 0.03 | 96 | 1015.1 |
| 20260905145742 | 6 | 150 | 3.2 | 8.0 | 0.00 | 0.15 | 0.03 | 96 | 1015.1 |
| 20260905145507 | 6 | 157 | 3.2 | 8.0 | 0.00 | 0.15 | 0.03 | 96 | 1015.0 |
| 20260905144742 | 6 | 155 | 3.2 | 8.0 | 0.00 | 0.15 | 0.03 | 96 | 1015.0 |
| 20260905144242 | 5 | 140 | 3.2 | 9.7 | 0.00 | 0.15 | 0.03 | 96 | 1014.8 |
| 20260905143742 | 5 | 151 | 3.2 | 9.7 | 0.00 | 0.15 | 0.03 | 96 | 1014.8 |
| 20260905143242 | 5 | 149 | 1.6 | 11.3 | 0.00 | 0.15 | 0.03 | 96 | 1014.8 |
| 20260905142742 | 5 | 154 | 1.6 | 11.3 | 0.00 | 0.15 | 0.03 | 96 | 1014.7 |
| 20260905142243 | 5 | 143 | 4.8 | 11.3 | 0.00 | 0.15 | 0.03 | 96 | 1014.7 |
| 20260905141745 | 5 | 144 | 4.8 | 11.3 | 0.00 | 0.15 | 0.03 | 96 | 1014.5 |
| 20260905141238 | 5 | 141 | 3.2 | 8.0 | 0.00 | 0.15 | 0.03 | 96 | 1014.5 |
| 20260905140738 | 5 | 152 | 3.2 | 8.0 | 0.00 | 0.15 | 0.03 | 96 | 1014.5 |
| 20260905140506 | 5 | 136 | 3.2 | 8.0 | 0.00 | 0.15 | 0.03 | 96 | 1014.4 |
| 20260905135737 | 5 | 146 | 3.2 | 8.0 | 0.00 | 0.15 | 0.03 | 96 | 1014.5 |
| 20260905135238 | 5 | 148 | 1.6 | 6.4 | 0.00 | 0.15 | 0.03 | 96 | 1014.4 |
| 20260905135001 | 5 | 146 | 3.2 | 8.0 | 0.00 | 0.15 | 0.03 | 96 | 1014.4 |
| 20260905134238 | 5 | 145 | 3.2 | 8.0 | 0.00 | 0.15 | 0.03 | 96 | 1014.4 |
| 20260905133738 | 5 | 159 | 4.8 | 11.3 | 0.00 | 0.15 | 0.03 | 96 | 1014.4 |
| 20260905133237 | 5 | 146 | 4.8 | 11.3 | 0.00 | 0.15 | 0.03 | 96 | 1014.3 |
| 20260905132733 | 5 | 161 | 4.8 | 11.3 | 0.00 | 0.15 | 0.03 | 96 | 1014.4 |
| 20260905132234 | 5 | 140 | 4.8 | 11.3 | 0.00 | 0.15 | 0.03 | 96 | 1014.4 |
| 20260905131734 | 5 | 144 | 4.8 | 11.3 | 0.00 | 0.15 | 0.03 | 95 | 1014.3 |
| 20260905131234 | 5 | 155 | 4.8 | 12.9 | 0.00 | 0.15 | 0.03 | 96 | 1014.3 |
| 20260905130735 | 5 | 155 | 3.2 | 12.9 | 0.00 | 0.15 | 0.03 | 96 | 1014.3 |
| 20260905130724 | 5 | 170 | 3.2 | 11.3 | 0.00 | 0.15 | 0.03 | 96 | 1014.4 |
| 20260905125732 | 5 | 147 | 3.2 | 9.7 | 0.00 | 0.15 | 0.03 | 96 | 1014.3 |
| 20260905125232 | 4 | 144 | 1.6 | 6.4 | 0.00 | 0.15 | 0.03 | 96 | 1014.2 |
| 20260905124732 | 4 | 146 | 1.6 | 6.4 | 0.00 | 0.15 | 0.03 | 95 | 1014.3 |
| 20260905124232 | 4 | 146 | 1.6 | 6.4 | 0.00 | 0.15 | 0.03 | 95 | 1014.5 |
| 20260905123734 | 4 | 143 | 1.6 | 6.4 | 0.00 | 0.15 | 0.03 | 95 | 1014.5 |
| 20260905123231 | 4 | 136 | 3.2 | 11.3 | 0.00 | 0.15 | 0.03 | 95 | 1014.5 |
| 20260905122730 | 5 | 128 | 3.2 | 11.3 | 0.00 | 0.15 | 0.03 | 95 | 1014.4 |
| 20260905122219 | 5 | 147 | 1.6 | 8.0 | 0.00 | 0.15 | 0.03 | 95 | 1014.3 |
| 20260905121712 | 5 | 150 | 1.6 | 8.0 | 0.00 | 0.15 | 0.03 | 95 | 1014.4 |
| 20260905121206 | 5 | 149 | 3.2 | 6.4 | 0.00 | 0.15 | 0.03 | 95 | 1014.4 |
| 20260905120659 | 5 | 138 | 1.6 | 6.4 | 0.00 | 0.15 | 0.03 | 95 | 1014.4 |
| 20260905120152 | 5 | 140 | 0.0 | 4.8 | 0.00 | 0.15 | 0.03 | 95 | 1014.4 |
| 20260905115646 | 5 | 139 | 0.0 | 3.2 | 0.00 | 0.15 | 0.03 | 95 | 1014.3 |
| 20260905115140 | 5 | 138 | 0.0 | 3.2 | 0.00 | 0.15 | 0.03 | 95 | 1014.2 |
| 20260905114634 | 5 | 138 | 0.0 | 4.8 | 0.00 | 0.15 | 0.03 | 95 | 1014.3 |
| 20260905114128 | 5 | 130 | 1.6 | 6.4 | 0.00 | 0.15 | 0.03 | 95 | 1014.3 |
| 20260905113621 | 5 | 128 | 1.6 | 6.4 | 0.00 | 0.15 | 0.03 | 95 | 1014.3 |
| 20260905113117 | 5 | 134 | 1.6 | 4.8 | 0.00 | 0.15 | 0.03 | 95 | 1014.3 |
| 20260905112609 | 5 | 142 | 0.0 | 3.2 | 0.00 | 0.15 | 0.03 | 95 | 1014.4 |
| 20260905112106 | 5 | 142 | 0.0 | 1.6 | 0.00 | 0.15 | 0.03 | 95 | 1014.4 |
| 20260905111601 | 5 | 142 | 0.0 | 1.6 | 0.00 | 0.15 | 0.03 | 95 | 1014.4 |
| 20260905111051 | 5 | 142 | 0.0 | 1.6 | 0.00 | 0.15 | 0.03 | 95 | 1014.4 |
| 20260905110546 | 5 | 142 | 0.0 | 3.2 | 0.00 | 0.15 | 0.03 | 95 | 1014.4 |
| 20260905110040 | 5 | 142 | 0.0 | 3.2 | 0.00 | 0.15 | 0.03 | 95 | 1014.4 |
| 20260905105534 | 5 | 142 | 0.0 | 1.6 | 0.00 | 0.15 | 0.03 | 95 | 1014.4 |
| 20260905105029 | 5 | 142 | 0.0 | 0.0 | 0.00 | 0.15 | 0.03 | 95 | 1014.5 |
| 20260905104749 | 5 | 142 | 0.0 | 0.0 | 0.00 | 0.15 | 0.03 | 95 | 1014.5 |
| 20260905104021 | 5 | 142 | 0.0 | 0.0 | 0.00 | 0.15 | 0.03 | 95 | 1014.5 |
| 20260905103511 | 5 | 142 | 0.0 | 0.0 | 0.00 | 0.15 | 0.03 | 95 | 1014.5 |
| 20260905103003 | 6 | 142 | 0.0 | 4.8 | 0.00 | 0.15 | 0.03 | 95 | 1014.5 |
| 20260905102459 | 6 | 142 | 1.6 | 6.4 | 0.00 | 0.15 | 0.03 | 95 | 1014.4 |
| 20260905101955 | 6 | 143 | 1.6 | 6.4 | 0.00 | 0.15 | 0.03 | 95 | 1014.4 |
| 20260905101446 | 6 | 157 | 1.6 | 6.4 | 0.00 | 0.15 | 0.03 | 95 | 1014.3 |
| 20260905100940 | 6 | 159 | 1.6 | 3.2 | 0.00 | 0.15 | 0.03 | 95 | 1014.4 |
| 20260905100659 | 6 | 150 | 0.0 | 3.2 | 0.00 | 0.15 | 0.03 | 95 | 1014.4 |
| 20260905095928 | 6 | 147 | 1.6 | 4.8 | 0.00 | 0.15 | 0.03 | 95 | 1014.4 |
| 20260905095422 | 6 | 144 | 1.6 | 6.4 | 0.00 | 0.15 | 0.03 | 95 | 1014.4 |
| 20260905094919 | 6 | 150 | 1.6 | 6.4 | 0.00 | 0.15 | 0.03 | 95 | 1014.4 |
| 20260905094411 | 6 | 146 | 0.0 | 3.2 | 0.03 | 0.15 | 0.03 | 95 | 1014.4 |
| 20260905093904 | 6 | 146 | 1.6 | 6.4 | 0.03 | 0.15 | 0.03 | 95 | 1014.4 |
| 20260905093627 | 6 | 144 | 3.2 | 6.4 | 0.03 | 0.15 | 0.03 | 95 | 1014.4 |
| 20260905092853 | 6 | 144 | 3.2 | 6.4 | 0.03 | 0.15 | 0.03 | 95 | 1014.5 |
| 20260905092611 | 6 | 140 | 3.2 | 6.4 | 0.03 | 0.15 | 0.03 | 95 | 1014.4 |
| 20260905091841 | 6 | 142 | 1.6 | 6.4 | 0.03 | 0.15 | 0.03 | 95 | 1014.4 |
| 20260905091342 | 6 | 139 | 0.0 | 3.2 | 0.03 | 0.15 | 0.03 | 95 | 1014.4 |
| 20260905090841 | 6 | 139 | 1.6 | 4.8 | 0.03 | 0.15 | 0.03 | 95 | 1014.5 |
| 20260905090608 | 6 | 139 | 0.0 | 4.8 | 0.03 | 0.15 | 0.03 | 95 | 1014.5 |
| 20260905085841 | 6 | 139 | 0.0 | 1.6 | 0.03 | 0.15 | 0.03 | 95 | 1014.4 |
| 20260905085605 | 6 | 139 | 0.0 | 1.6 | 0.03 | 0.15 | 0.03 | 95 | 1014.5 |
| 20260905084842 | 6 | 139 | 0.0 | 3.2 | 0.03 | 0.15 | 0.03 | 95 | 1014.5 |
| 20260905084341 | 6 | 139 | 1.6 | 4.8 | 0.00 | 0.13 | 0.00 | 94 | 1014.5 |
| 20260905084039 | 6 | 139 | 1.6 | 4.8 | 0.00 | 0.13 | 0.00 | 94 | 1014.4 |
| 20260905082839 | 7 | 138 | 1.6 | 6.4 | 0.00 | 0.13 | 0.00 | 94 | 1014.2 |
| 20260905082605 | 7 | 145 | 1.6 | 6.4 | 0.00 | 0.13 | 0.00 | 94 | 1014.1 |
| 20260905081838 | 7 | 148 | 1.6 | 4.8 | 0.00 | 0.13 | 0.00 | 94 | 1014.2 |
| 20260905081339 | 7 | 148 | 1.6 | 4.8 | 0.00 | 0.13 | 0.00 | 95 | 1014.2 |
| 20260905080835 | 7 | 148 | 0.0 | 3.2 | 0.00 | 0.13 | 0.00 | 95 | 1014.0 |
| 20260905080335 | 7 | 148 | 0.0 | 4.8 | 0.00 | 0.13 | 0.00 | 95 | 1014.1 |
| 20260905080106 | 7 | 147 | 1.6 | 4.8 | 0.00 | 0.13 | 0.00 | 95 | 1014.0 |
| 20260905075337 | 7 | 148 | 1.6 | 4.8 | 0.00 | 0.13 | 0.00 | 94 | 1014.1 |
| 20260905074835 | 7 | 148 | 1.6 | 4.8 | 0.00 | 0.13 | 0.00 | 94 | 1013.9 |
| 20260905074335 | 7 | 147 | 1.6 | 6.4 | 0.00 | 0.13 | 0.00 | 94 | 1014.0 |
| 20260905073835 | 7 | 147 | 1.6 | 6.4 | 0.00 | 0.13 | 0.00 | 94 | 1013.8 |
| 20260905073335 | 7 | 169 | 1.6 | 6.4 | 0.00 | 0.13 | 0.00 | 94 | 1013.9 |
| 20260905073059 | 7 | 171 | 1.6 | 4.8 | 0.00 | 0.13 | 0.00 | 94 | 1013.8 |
| 20260905072334 | 7 | 171 | 1.6 | 4.8 | 0.00 | 0.13 | 0.00 | 94 | 1013.6 |
| 20260905072057 | 7 | 171 | 1.6 | 3.2 | 0.00 | 0.13 | 0.00 | 94 | 1013.6 |
| 20260905071335 | 7 | 171 | 1.6 | 4.8 | 0.00 | 0.13 | 0.00 | 94 | 1013.6 |
| 20260905070836 | 7 | 172 | 1.6 | 4.8 | 0.00 | 0.13 | 0.00 | 94 | 1013.6 |
| 20260905070555 | 7 | 191 | 0.0 | 3.2 | 0.00 | 0.13 | 0.00 | 93 | 1013.5 |
| 20260905065835 | 7 | 192 | 1.6 | 4.8 | 0.00 | 0.13 | 0.13 | 93 | 1013.5 |
| 20260905065334 | 7 | 192 | 1.6 | 4.8 | 0.00 | 0.13 | 0.13 | 93 | 1013.5 |
| 20260905064832 | 7 | 196 | 0.0 | 3.2 | 0.00 | 0.13 | 0.13 | 93 | 1013.3 |
| 20260905064815 | 7 | 197 | 0.0 | 1.6 | 0.00 | 0.13 | 0.13 | 93 | 1013.3 |
| 20260905064058 | 7 | 197 | 0.0 | 1.6 | 0.00 | 0.13 | 0.13 | 93 | 1013.3 |
| 20260905063330 | 7 | 197 | 0.0 | 1.6 | 0.00 | 0.13 | 0.13 | 92 | 1013.3 |
| 20260905062831 | 7 | 199 | 0.0 | 1.6 | 0.00 | 0.13 | 0.13 | 92 | 1013.3 |
| 20260905062331 | 7 | 199 | 0.0 | 0.0 | 0.00 | 0.13 | 0.13 | 91 | 1013.2 |
| 20260905061828 | 7 | 199 | 0.0 | 1.6 | 0.00 | 0.13 | 0.13 | 91 | 1013.2 |
| 20260905061556 | 7 | 199 | 1.6 | 6.4 | 0.00 | 0.13 | 0.13 | 92 | 1013.3 |
| 20260905060822 | 7 | 199 | 1.6 | 6.4 | 0.00 | 0.13 | 0.13 | 92 | 1013.2 |
| 20260905060547 | 7 | 198 | 1.6 | 4.8 | 0.00 | 0.13 | 0.13 | 92 | 1013.2 |
| 20260905055810 | 8 | 197 | 1.6 | 4.8 | 0.00 | 0.13 | 0.13 | 92 | 1013.3 |
| 20260905055306 | 8 | 194 | 3.2 | 8.0 | 0.00 | 0.13 | 0.13 | 92 | 1013.3 |
| 20260905054758 | 8 | 191 | 1.6 | 8.0 | 0.00 | 0.13 | 0.13 | 92 | 1013.4 |
| 20260905054746 | 8 | 226 | 1.6 | 4.8 | 0.00 | 0.13 | 0.13 | 92 | 1013.5 |
| 20260905053746 | 8 | 228 | 0.0 | 4.8 | 0.00 | 0.13 | 0.13 | 92 | 1013.5 |
| 20260905053240 | 8 | 233 | 1.6 | 3.2 | 0.00 | 0.13 | 0.13 | 92 | 1013.4 |
| 20260905052733 | 8 | 233 | 1.6 | 3.2 | 0.00 | 0.13 | 0.13 | 93 | 1013.4 |
| 20260905052228 | 8 | 245 | 0.0 | 3.2 | 0.00 | 0.13 | 0.13 | 92 | 1013.3 |
| 20260905051722 | 8 | 249 | 0.0 | 3.2 | 0.03 | 0.13 | 0.13 | 92 | 1013.4 |
| 20260905051216 | 8 | 251 | 0.0 | 1.6 | 0.03 | 0.13 | 0.13 | 92 | 1013.2 |
| 20260905050711 | 8 | 251 | 0.0 | 1.6 | 0.03 | 0.13 | 0.13 | 92 | 1013.2 |
| 20260905050204 | 9 | 251 | 0.0 | 1.6 | 0.05 | 0.13 | 0.13 | 91 | 1013.4 |
| 20260905050151 | 9 | 251 | 0.0 | 1.6 | 0.08 | 0.13 | 0.13 | 91 | 1013.3 |
| 20260905045152 | 9 | 251 | 0.0 | 1.6 | 0.08 | 0.13 | 0.13 | 91 | 1013.3 |
| 20260905044646 | 9 | 251 | 1.6 | 4.8 | 0.08 | 0.13 | 0.13 | 91 | 1013.3 |
| 20260905044140 | 9 | 252 | 1.6 | 4.8 | 0.08 | 0.13 | 0.13 | 91 | 1013.3 |
| 20260905043634 | 9 | 253 | 1.6 | 4.8 | 0.08 | 0.13 | 0.13 | 90 | 1013.3 |
| 20260905043129 | 9 | 253 | 0.0 | 4.8 | 0.08 | 0.13 | 0.13 | 90 | 1013.2 |
| 20260905042622 | 9 | 247 | 0.0 | 4.8 | 0.08 | 0.13 | 0.13 | 90 | 1013.2 |
| 20260905042115 | 10 | 245 | 0.0 | 4.8 | 0.08 | 0.13 | 0.13 | 89 | 1013.2 |
| 20260905041610 | 10 | 242 | 0.0 | 0.0 | 0.05 | 0.10 | 0.10 | 88 | 1013.2 |
| 20260905041104 | 10 | 242 | 0.0 | 0.0 | 0.05 | 0.10 | 0.10 | 87 | 1013.1 |
| 20260905040558 | 10 | 240 | 0.0 | 0.0 | 0.05 | 0.10 | 0.10 | 87 | 1013.1 |
| 20260905040052 | 10 | 238 | 0.0 | 4.8 | 0.00 | 0.05 | 0.08 | 85 | 1013.3 |
| 20260905035747 | 10 | 238 | 1.6 | 6.4 | 0.00 | 0.05 | 0.05 | 84 | 1013.3 |
| 20260905034534 | 10 | 226 | 3.2 | 8.0 | 0.00 | 0.05 | 0.05 | 84 | 1013.4 |
| 20260905034254 | 10 | 203 | 3.2 | 11.3 | 0.00 | 0.05 | 0.05 | 85 | 1013.4 |
| 20260905033522 | 10 | 207 | 4.8 | 11.3 | 0.00 | 0.05 | 0.05 | 85 | 1013.4 |
| 20260905033015 | 10 | 233 | 4.8 | 11.3 | 0.00 | 0.05 | 0.05 | 85 | 1013.3 |
| 20260905032509 | 10 | 217 | 4.8 | 11.3 | 0.00 | 0.05 | 0.05 | 85 | 1013.2 |
| 20260905032008 | 10 | 220 | 3.2 | 9.7 | 0.00 | 0.05 | 0.05 | 85 | 1013.1 |
| 20260905031508 | 10 | 238 | 4.8 | 12.9 | 0.00 | 0.05 | 0.05 | 85 | 1013.0 |
| 20260905031006 | 10 | 249 | 6.4 | 12.9 | 0.00 | 0.05 | 0.05 | 85 | 1013.0 |
| 20260905030507 | 10 | 256 | 4.8 | 12.9 | 0.00 | 0.05 | 0.05 | 84 | 1013.0 |
| 20260905030005 | 10 | 256 | 3.2 | 9.7 | 0.00 | 0.05 | 0.05 | 83 | 1012.9 |
| 20260905025506 | 11 | 279 | 3.2 | 9.7 | 0.00 | 0.05 | 0.05 | 82 | 1012.7 |
| 20260905025006 | 11 | 291 | 3.2 | 6.4 | 0.00 | 0.05 | 0.05 | 80 | 1012.7 |
| 20260905024504 | 11 | 297 | 1.6 | 6.4 | 0.00 | 0.05 | 0.05 | 79 | 1012.6 |
| 20260905024004 | 11 | 298 | 1.6 | 6.4 | 0.00 | 0.05 | 0.05 | 78 | 1012.6 |
| 20260905023504 | 11 | 298 | 3.2 | 9.7 | 0.00 | 0.05 | 0.05 | 77 | 1012.4 |
| 20260905023004 | 12 | 297 | 3.2 | 9.7 | 0.00 | 0.05 | 0.05 | 77 | 1012.4 |
| 20260905022504 | 12 | 294 | 3.2 | 9.7 | 0.00 | 0.05 | 0.05 | 76 | 1012.4 |
| 20260905022004 | 12 | 283 | 3.2 | 11.3 | 0.00 | 0.05 | 0.05 | 75 | 1012.6 |
| 20260905021504 | 12 | 232 | 3.2 | 11.3 | 0.00 | 0.05 | 0.05 | 73 | 1012.6 |
| 20260905021004 | 13 | 281 | 1.6 | 9.7 | 0.00 | 0.05 | 0.05 | 74 | 1012.4 |
| 20260905020504 | 13 | 261 | 0.0 | 4.8 | 0.00 | 0.05 | 0.05 | 69 | 1012.6 |
| 20260905020003 | 13 | 268 | 1.6 | 4.8 | 0.00 | 0.05 | 0.05 | 67 | 1012.3 |
| 20260905015505 | 13 | 259 | 1.6 | 8.0 | 0.00 | 0.05 | 0.05 | 67 | 1012.3 |
| 20260905015004 | 13 | 257 | 1.6 | 8.0 | 0.00 | 0.05 | 0.05 | 66 | 1012.1 |
| 20260905014504 | 13 | 257 | 1.6 | 6.4 | 0.00 | 0.05 | 0.05 | 66 | 1012.1 |
| 20260905014004 | 13 | 265 | 1.6 | 6.4 | 0.00 | 0.05 | 0.05 | 63 | 1012.0 |
| 20260905013504 | 13 | 273 | 3.2 | 9.7 | 0.00 | 0.05 | 0.05 | 62 | 1012.0 |
| 20260905013002 | 14 | 269 | 3.2 | 9.7 | 0.00 | 0.05 | 0.05 | 60 | 1012.0 |
| 20260905012704 | 15 | 279 | 3.2 | 9.7 | 0.00 | 0.05 | 0.05 | 60 | 1012.0 |